This demonstration page uses our WeatherBlox Daily Observations layout. Learn more.

Left ArrowRight Arrow

Hourly Observations for March 24, 2021

Temp ( °F °C ) Dew Point ( °F °C ) Humidity (%) Winds ( mph kmh ) Pressure ( in mb ) Visibility ( mi km ) Precip ( " mm )
12:53 am 00:53 Clear 63 17.2 53 11.7 70 70 SE 8 13 29.93 1013 10 16 0.00 0.00
1:53 am 01:53 Partly Cloudy 63 17.2 53 11.7 70 70 VRB 5 7 29.88 1012 10 16 0.00 0.00
2:40 am 02:40 Mostly Cloudy 63 17.2 53 11.7 70 70 Calm 29.93 1013 10 16 0.00 0.00
2:53 am 02:53 Mostly Cloudy 62 16.7 53 11.7 73 73 WSW 3 6 29.93 1014 10 16 0.00 0.00
3:21 am 03:21 Partly Cloudy 62 16.7 53 11.7 73 73 SSE 3 6 29.93 1013 10 16 0.00 0.00
3:49 am 03:49 Mostly Cloudy 61 16 54 12 77 77 Calm 29.95 1014 10 16 0.00 0.00
3:53 am 03:53 Mostly Cloudy 61 16.1 54 12.2 78 78 ESE 5 7 29.93 1014 10 16 0.00 0.00
4:05 am 04:05 Mostly Cloudy 61 16.1 54 12.2 78 78 ESE 5 7 29.92 1013 10 16 0.00 0.00
4:53 am 04:53 Mostly Cloudy 60 15.6 54 12.2 80 80 Calm 29.93 1013 10 16 0.00 0.00
5:45 am 05:45 Cloudy 60 15.6 54 12.2 80 80 Calm 29.94 1014 10 16 0.00 0.00
5:53 am 05:53 Cloudy 61 16.1 54 12.2 78 78 Calm 29.93 1014 10 16 0.00 0.00
6:53 am 06:53 Cloudy 60 15.6 54 12.2 80 80 NE 5 7 29.93 1014 10 16 0.00 0.00
7:53 am 07:53 Partly Cloudy 61 16.1 54 12.2 78 78 E 7 11 29.93 1014 10 16 0.00 0.00
8:53 am 08:53 Cloudy 62 16.7 55 12.8 78 78 E 5 7 29.96 1015 10 16 0.00 0.00
9:53 am 09:53 Cloudy 63 17.2 56 13.3 78 78 Calm 29.98 1015 10 16 0.00 0.00
10:53 am 10:53 Partly Cloudy 64 17.8 56 13.3 75 75 ESE 6 9 29.99 1016 10 16 0.00 0.00
11:53 am 11:53 Sunny 67 19.4 56 13.3 68 68 SE 6 9 29.98 1015 10 16 0.00 0.00
12:46 pm 12:46 Mostly Cloudy 68 20 56 13.3 65 65 VRB 5 7 29.97 1015 10 16 0.00 0.00
12:53 pm 12:53 Cloudy 68 20 56 13.3 65 65 SSE 5 7 29.98 1015 10 16 0.00 0.00
1:14 pm 13:14 Cloudy 69 20.6 56 13.3 63 63 S 13 20 29.98 1015 10 16 0.00 0.00
2:53 pm 14:53 Sunny 71 21.7 55 12.8 57 57 S 5 7 29.94 1014 10 16 0.00 0.00
3:53 pm 15:53 Sunny 72 22.2 54 12.2 53 53 SW 7 11 29.93 1014 10 16 0.00 0.00
4:53 pm 16:53 Mostly Sunny 75 23.9 54 12.2 48 48 S 10 17 29.93 1014 10 16 0.00 0.00
5:53 pm 17:53 Sunny 74 23.3 53 11.7 48 48 SSW 7 11 29.93 1014 10 16 0.00 0.00
6:53 pm 18:53 Mostly Sunny 74 23.3 53 11.7 48 48 S 8 13 29.94 1014 10 16 0.00 0.00
7:53 pm 19:53 Clear 72 22.2 53 11.7 52 52 S 6 9 29.95 1014 10 16 0.00 0.00
8:53 pm 20:53 Clear 69 20.6 54 12.2 59 59 S 3 6 29.98 1015 10 16 0.00 0.00
9:53 pm 21:53 Clear 62 16.7 54 12.2 75 75 Calm 29.99 1016 10 16 0.00 0.00
10:53 pm 22:53 Mostly Cloudy 63 17.2 55 12.8 76 76 Calm 30.01 1016 10 16 0.00 0.00
11:53 pm 23:53 Clear 60 15.6 55 12.8 84 84 Calm 30.00 1016 10 16 0.00 0.00

Powered by AerisWeather